This demonstration page uses our WeatherBlox Daily Observations layout. Learn more.

38.88101, -77.10428

Hourly Observations for October 26, 2020

Temp ( °F °C ) Dew Point ( °F °C ) Humidity (%) Winds ( mph kmh ) Pressure ( in mb ) Visibility ( mi km ) Precip ( " mm )
12:52 am 00:52 Cloudy with Drizzle 49 9.4 46 7.8 90 90 N 9 15 30.2 1023 6 9.65604 0.001 0.001
1:52 am 01:52 Cloudy 49 9.4 46 7.8 90 90 N 8 13 30.18 1022 9 14.48406 0.001 0.001
1:55 am 01:55 Cloudy 49 9.4 47 8.3 93 93 N 8 13 30.18 1022 7 11.26538 0 0
2:52 am 02:52 Cloudy 49 9.4 47 8.3 93 93 NNW 10 17 30.17 1022 7 11.26538 0 0
3:52 am 03:52 Cloudy with Drizzle 48 8.9 46 7.8 93 93 N 13 20 30.16 1021 3 4.82802 0.001 0.001
4:52 am 04:52 Cloudy with Drizzle 48 8.9 47 8.3 96 96 N 12 19 30.16 1021 3 4.82802 0.001 0.001
5:52 am 05:52 Cloudy with Drizzle 49 9.4 47 8.3 93 93 N 10 17 30.16 1022 3 4.82802 0.001 0.001
5:59 am 05:59 Cloudy with Drizzle 49 9.4 47 8.3 93 93 N 9 15 30.16 1021 5 8.0467 0.001 0.001
6:24 am 06:24 Cloudy 50 10 48 8.9 93 93 N 7 11 30.15 1021 10 16.0934 0.001 0.001
6:52 am 06:52 Cloudy 50 10 48 8.9 93 93 NNW 7 11 30.15 1021 10 16.0934 0.001 0.001
7:52 am 07:52 Cloudy 50 10 48 8.9 93 93 NNW 8 13 30.16 1022 10 16.0934 0 0
8:52 am 08:52 Cloudy 51 10.6 48 8.9 89 89 NW 6 9 30.17 1022 8 12.87472 0 0
9:52 am 09:52 Cloudy 51 10.6 49 9.4 92 92 NW 7 11 30.19 1022 9 14.48406 0 0
10:04 am 10:04 Cloudy with Mist and Fog 52 11.1 49 9.4 89 89 NW 6 9 30.19 1022 6 9.65604 0 0
10:52 am 10:52 Cloudy with Mist and Fog 54 12.2 50 10 87 87 NW 3 6 30.17 1022 6 9.65604 0 0
11:45 am 11:45 Cloudy 55 12.8 50 10 83 83 VRB 3 6 30.17 1022 10 16.0934 0 0
11:52 am 11:52 Cloudy 56 13.3 50 10 81 81 WNW 3 6 30.17 1022 10 16.0934 0 0
12:52 pm 12:52 Cloudy 58 14.4 52 11.1 81 81 NW 3 6 30.15 1021 10 16.0934 0 0
1:52 pm 13:52 Cloudy 59 15 53 11.7 81 81 NW 5 7 30.13 1020 10 16.0934 0 0
2:46 pm 14:46 Cloudy 59 15 54 12 82 82 E 3 6 30.11 1020 10 16.0934 0 0
2:52 pm 14:52 Cloudy 58 14.4 53 11.7 84 84 E 3 6 30.1 1019 10 16.0934 0 0
3:52 pm 15:52 Cloudy 61 16.1 54 12.2 78 78 NE 5 7 30.09 1019 10 16.0934 0 0
4:48 pm 16:48 Partly Cloudy 63 17 55 13 77 77 E 3 6 30.09 1019 10 16.0934 0 0
4:52 pm 16:52 Partly Cloudy 62 16.7 55 12.8 78 78 ESE 5 7 30.09 1019 10 16.0934 0 0
5:52 pm 17:52 Mostly Cloudy 62 16.7 55 12.8 78 78 Calm 30.1 1019 10 16.0934 0 0
6:52 pm 18:52 Mostly Cloudy 60 15.6 55 12.8 84 84 Calm 30.11 1020 10 16.0934 0 0
7:52 pm 19:52 Partly Cloudy 60 15.6 56 13.3 86 86 Calm 30.12 1020 10 16.0934 0 0
8:52 pm 20:52 Mostly Cloudy 59 15 56 13.3 90 90 Calm 30.12 1020 10 16.0934 0 0
9:52 pm 21:52 Mostly Cloudy 58 14.4 55 12.8 90 90 Calm 30.13 1020 10 16.0934 0 0
10:34 pm 22:34 Mostly Cloudy 57 13.9 55 12.8 93 93 Calm 30.14 1021 10 16.0934 0 0
10:52 pm 22:52 Cloudy 57 13.9 55 12.8 93 93 Calm 30.14 1021 10 16.0934 0 0
11:52 pm 23:52 Cloudy 58 14.4 56 13.3 93 93 Calm 30.14 1021 10 16.0934 0 0

Powered by AerisWeather